Hood River, OR

6:08 PM PST on February 11, 2016 (GMT -0800)
Hood River Valley | | Change Station
CLOSE
Current Station
Personal Weather Station
Location: Hood River, OR
Elevation: 600 ft
Nearby Weather Stations

Elev 600 ft 45.66 °N, 121.55 °W | Updated 17 seconds ago

Overcast
Overcast
47.1 °F
Feels Like 47 °F
N
1.0
Wind Variable Wind from North
Gusts 1.0 mph

Today
High -- | Low -- °F
--% Chance of Precip.
Yesterday
High -- | Low -- °F
Precip. -- in
Pressure 30.24 in
Visibility 3.0 miles
Clouds Scattered Clouds 9500 ft
Mostly Cloudy 12000 ft
Windchill 47 °F
Dew Point 46 °F
Humidity 95%
Rainfall 0.04 in
Snow Depth Not available.
7:14 AM 5:26 PM
Waxing Crescent, 16% visible
SPECI KDLS 120205Z AUTO 00000KT 3SM BR SCT095 BKN120 08/07 A3024 RMK AO2 T00830067
Pressure 30.24 in
Visibility 3.0 miles
Clouds Scattered Clouds 9500 ft
Mostly Cloudy 12000 ft
Windchill 47 °F
Dew Point 46 °F
Humidity 95%
Rainfall 0.04 in
Snow Depth Not available.
7:14 AM 5:26 PM
Waxing Crescent, 16% visible
SPECI KDLS 120205Z AUTO 00000KT 3SM BR SCT095 BKN120 08/07 A3024 RMK AO2 T00830067

10-Day Weather Forecast

Almanac

Astronomy

Feb. 11, 2016 Rise Set
Actual Time
Civil Twilight
Nautical Twilight
Astronomical Twilight
Moon
Length of Visible Light
Length of Day
Tomorrow will be .
, % of the Moon is Illuminated

Today's Extremes

State Highs State Lows

Community

WunderPhotos

Upload Photos

1,892,223 photos uploaded!

WunderBlog® & News

Nearby

Air Quality

  Air Quality AQ Index Pollutant
Not available.

Snow Depth

Station Depth Elevation

Earthquake Activity

City Distance Mag. Time & Date
Minimum magnitude displayed is 2.5.

Coastal Water Temperatures

Place Temperature

Stations

Nearby Weather Stations

Station Location Temp. Windchill Dew Point Humidity Wind Precip. Elev Updated Type
                   

Watches & Warnings

There are currently no watches in effect.